Orange, MA

6:17 AM EDT on July 27, 2017 (GMT -0400)
Orange Municipal

Weather History for KORE - January, 2013

Change the Weather History Date:

Friday, January 11, 2013

  Actual Average Record
Temperature  
Mean Temperature 27 °F -  
Max Temperature 36 °F 28 °F 57 °F (2014)
Min Temperature 18 °F 11 °F -11 °F (2004)
Degree Days  
Heating Degree Days 38    
Moisture  
Dew Point 27 °F    
Average Humidity 89    
Maximum Humidity 100    
Minimum Humidity 64    
Precipitation  
Precipitation 0.13 in - - ()
Sea Level Pressure  
Sea Level Pressure 30.32 in    
Wind  
Wind Speed 0 mph (SSW)    
Max Wind Speed 6 mph    
Max Gust Speed -    
Visibility 6 miles    
Events Rain    
Averages and records for this station are not official NWS values.
T = Trace of Precipitation, MM = Missing Value Source: NWS Daily Summary

Daily Weather History Graph

Daily Weather History Graph

Search for Another Location

Airport or City:

Trip Planner

Search our weather history database for the weather conditions in past years. The results will help you decide how hot, cold, wet, or windy it might be!

Date:

Astronomy

Jan. 11, 2013 Rise Set
Actual Time 7:17 AM EST 4:36 PM EST
Civil Twilight 6:46 AM EST 5:08 PM EST
Nautical Twilight 6:11 AM EST 5:43 PM EST
Astronomical Twilight 5:37 AM EST 6:17 PM EST
Moon 6:47 AM EST (1/11) 4:52 PM EST (1/11)
Length of Visible Light 10h 21m
Length of Day
9h 19m
Waning Crescent, 0% of the Moon is Illuminated
Jan 11
Waning Crescent
Jan 11
New
Jan 18
First Quarter
Jan 26
Full
Feb 3
Last Quarter

Hourly Weather History & Observations

Time (EST) Temp. Windchill Dew Point Humidity Pressure Visibility Wind Dir Wind Speed Gust Speed Precip Events Conditions
12:52 AM 21.0 °F - 19.0 °F 92% 30.53 in 10.0 mi Calm Calm - N/A   Clear
1:52 AM 19.9 °F - 18.0 °F 92% 30.53 in 10.0 mi Calm Calm - N/A   Clear
2:52 AM 19.9 °F - 18.0 °F 92% 30.51 in 8.0 mi Calm Calm - N/A   Clear
3:52 AM 18.0 °F - 16.0 °F 92% 30.51 in 8.0 mi Calm Calm - N/A   Clear
4:52 AM 19.0 °F - 18.0 °F 96% 30.49 in 9.0 mi Calm Calm - N/A   Clear
5:52 AM 19.9 °F - 19.0 °F 96% 30.50 in 7.0 mi Calm Calm - N/A   Clear
6:52 AM 21.9 °F - 19.0 °F 89% 30.51 in 9.0 mi Calm Calm - N/A   Clear
7:52 AM 21.9 °F - 19.9 °F 92% 30.51 in 8.0 mi Calm Calm - N/A   Clear
8:52 AM 24.1 °F - 21.9 °F 91% 30.50 in 9.0 mi Calm Calm - N/A   Clear
9:52 AM 27.0 °F - 24.1 °F 89% 30.48 in 10.0 mi Calm Calm - N/A   Clear
10:52 AM 30.0 °F - 24.1 °F 79% 30.45 in 10.0 mi Calm Calm - N/A   Clear
11:52 AM 34.0 °F 29.8 °F 23.0 °F 64% 30.43 in 10.0 mi South 4.6 mph - N/A   Clear
12:52 PM 34.0 °F 28.8 °F 24.1 °F 67% 30.40 in 10.0 mi SSW 5.8 mph - N/A   Clear
1:52 PM 35.1 °F 31.0 °F 25.0 °F 67% 30.37 in 10.0 mi SSW 4.6 mph - N/A   Overcast
2:33 PM 35.6 °F - 24.8 °F 65% 30.32 in 10.0 mi Calm Calm - N/A   Mostly Cloudy
2:52 PM 35.1 °F 32.2 °F 25.0 °F 67% 30.35 in 10.0 mi SSW 3.5 mph - N/A   Overcast
3:43 PM 35.6 °F - 26.6 °F 70% 30.30 in 10.0 mi Calm Calm - N/A   Overcast
3:52 PM 36.0 °F - 26.1 °F 67% 30.33 in 10.0 mi Calm Calm - N/A   Overcast
4:52 PM 33.1 °F - 30.0 °F 89% 30.31 in 7.0 mi Calm Calm - 0.02 in Rain Light Rain
5:52 PM 33.1 °F - 32.0 °F 96% 30.28 in 9.0 mi Calm Calm - 0.03 in   Overcast
6:11 PM 33.8 °F - 32.0 °F 93% 30.24 in 7.0 mi Calm Calm - N/A   Overcast
6:52 PM 33.1 °F - 32.0 °F 96% 30.26 in 6.0 mi Calm Calm - N/A   Overcast
7:48 PM 33.8 °F - 32.0 °F 93% 30.22 in 2.0 mi Calm Calm - 0.02 in Rain Light Rain
7:52 PM 33.1 °F - 32.0 °F 96% 30.24 in 1.8 mi Calm Calm - 0.02 in Rain Light Rain
8:05 PM 33.8 °F - 30.2 °F 87% 30.22 in 2.5 mi Calm Calm - 0.00 in Rain Light Rain
8:21 PM 33.8 °F - 32.0 °F 93% 30.21 in 1.8 mi Calm Calm - 0.01 in Rain Light Rain
8:36 PM 33.8 °F - 32.0 °F 93% 30.20 in 1.2 mi Calm Calm - 0.03 in Rain Light Rain
8:47 PM 33.8 °F - 32.0 °F 93% 30.20 in 1.8 mi Calm Calm - 0.03 in Rain Light Rain
8:52 PM 33.1 °F - 32.0 °F 96% 30.22 in 1.5 mi Calm Calm - 0.03 in Rain Light Rain
9:10 PM 33.8 °F - 32.0 °F 93% 30.19 in 1.0 mi Calm Calm - 0.00 in Rain Light Rain
9:22 PM 33.8 °F - 32.0 °F 93% 30.18 in 1.5 mi Calm Calm - 0.00 in Rain Light Rain
9:52 PM 33.1 °F - 32.0 °F 96% 30.21 in 1.5 mi Calm Calm - 0.01 in Rain Light Rain
10:09 PM 33.8 °F 30.8 °F 32.0 °F 93% 30.19 in 2.0 mi North 3.5 mph - 0.00 in   Overcast
10:33 PM 33.8 °F - 33.8 °F 100% 30.20 in 2.0 mi Calm Calm - 0.00 in   Overcast
10:52 PM 33.1 °F - 33.1 °F 100% 30.23 in 2.5 mi Calm Calm - 0.00 in Rain Light Rain
11:13 PM 33.8 °F - 32.0 °F 93% 30.20 in 1.2 mi Calm Calm - 0.01 in Rain Light Rain
11:26 PM 33.8 °F - 32.0 °F 93% 30.19 in 1.0 mi Calm Calm - 0.01 in   Overcast
11:48 PM 33.8 °F - 33.8 °F 100% 30.18 in 0.8 mi Calm Calm - 0.02 in   Overcast
11:52 PM 33.1 °F - 33.1 °F 100% 30.20 in 0.8 mi Calm Calm - 0.02 in   Overcast